Regional Weather Roundup
Issued by NWS

Home | Current Version | Previous Version | Text Only | Print | Product List | Glossary On
Versions: 1 2 3 4 5 6 7 8 9 10 11 12 13 14 15 16 17 18 19 20 21 22 23 24 25 26 27 28 29 30 31 32 33 34 35 36 37 38 39 40 41 42 43 44 45 46 47 48 49 50
000
ASHW40 PHFO 200944
RWRHI

WEATHER ROUNDUP FOR HAWAII
NATIONAL WEATHER SERVICE HONOLULU HI
1100 PM HST TUE SEP 19 2017

THIS IS AN AUTOMATED REPORT THAT HAS NOT BEEN QUALITY CONTROLLED.

NOTE..."FAIR" INDICATES FEW OR NO CLOUDS BELOW 12,000 FEET WITH NO
SIGNIFICANT WEATHER AND/OR OBSTRUCTIONS TO VISIBILITY.

* - THESE SITES REPORT LIMITED FIELDS
# - BUOY DATA PROVIDED BY PACIFIC ISLANDS OCEAN OBSERVING SYSTEM.

HIZ001>004-201000-
KAUAI-NIIHAU-

CITY           SKY/WX    TMP DP  RH WIND       PRES   REMARKS
LIHUE APT      CLEAR     81  69  67 NE15      30.06S
PORT ALLEN*      N/A     79 N/A N/A NE13        N/A
POIPU*           N/A     79 N/A N/A NE8G15      N/A
PRINCEVILLE*     N/A     75 N/A N/A SE5         N/A
KOKOLE POINT*  NOT AVBL
MOLOAA DAIRY*    N/A     79  70  73 E6G13       N/A
WAIMEA HTS*      N/A     77  63  61 NE7G14      N/A
PUU OPAE*        N/A     68  57  68 NE6         N/A
PUU LUA*       NOT AVBL
MAKAHA RIDGE*    N/A     70  59  68 CALM        N/A
$$

HIZ005>011-201000-
OAHU-

CITY           SKY/WX    TMP DP  RH WIND       PRES   REMARKS
HONOLULU       PTCLDY    80  67  64 NE9       30.03S
KALAELOA       PTCLDY    78  66  66 NE3       30.05R
KANEOHE MCB    NOT AVBL
WHEELER FIELD  FAIR      72  66  82 CALM      30.05S
BELLOWS*         N/A    N/A N/A N/A NE18        N/A
KAHUKU*          N/A    N/A N/A N/A NE9G16      N/A
WHEELER*         N/A    N/A N/A N/A S2          N/A
WAIANAE HARBOR   N/A    N/A N/A N/A E6G13       N/A
DILLINGHAM*      N/A     70  64  83 W2          N/A
KAHUKU TRN*      N/A     75  70  83 W7G17       N/A
KAWAILOA*        N/A     73  66  78 E12G21      N/A
KII*             N/A     79  72  78 E15G21      N/A
MAKUA RANGE*     N/A     79  63  57 W10         N/A
OAHU FOREST NW   N/A     72  66  83 E16G30      N/A
SCHOFIELD BRK*   N/A     70  64  83 MISG        N/A
SCHOFIELD S*   NOT AVBL
WAIANAE VLY*     N/A     75  66  73 N8G20       N/A
KUAOKALA*        N/A     75  64  69 NE12        N/A
HONOULIUULI*   NOT AVBL
MOKUOLOE IS*   NOT AVBL
PALEHUA*         N/A     68  64  88 NE12G18     N/A
WAIAWA PHB*    NOT AVBL
$$

HIZ012>013-201000-
MOLOKAI-

CITY           SKY/WX    TMP DP  RH WIND       PRES   REMARKS
MOLOKAI AIRPT  CLEAR     76  69  79 NE10      30.04S
KALAUPAPA      NOT AVBL
MAKAPULAPAI*     N/A     75  72  88 E16G26      N/A
MOLOKAI 1*       N/A     68  64  88 NE3G9       N/A
PUU ALII*        N/A     62  62 100 N2          N/A
$$

HIZ016-201000-
KAHOOLAWE-

CITY           SKY/WX    TMP DP  RH WIND       PRES   REMARKS
KAHOOLAWE*     NOT AVBL
HAKIOAWA*        N/A     73  69  88 MISG      30.45S
HONOKANAIA*      N/A     78  68  70 NE14G23   29.97R
KANELOA*         N/A     75  70  83 E14G30      N/A
KEALIALALO*    NOT AVBL
LUA MAKIKA*    NOT AVBL
$$

HIZ014>015-201000-
LANAI-

CITY           SKY/WX    TMP DP  RH WIND       PRES   REMARKS
LANAI CITY     FAIR      72  68  87 NE14      30.08S
LANAI 1*         N/A     72  70  94 NE17        N/A
$$

HIZ017>028-201000-
MAUI-

CITY           SKY/WX    TMP DP  RH WIND       PRES   REMARKS
KAHULUI        PTCLDY    76  70  82 E14       30.02S
KAPALUA-W MAUI NOT AVBL
HANA AIRPORT   NOT AVBL
HANA*          NOT AVBL
HALEAKALA SUMM   N/A     46  46 100 E23         N/A
MAALAEA BAY*     N/A     77 N/A N/A N14G22      N/A
HALEAKALA*     NOT AVBL
KAUPO GAP*     NOT AVBL
KULA 1*          N/A     54  48  80 NE3         N/A
$$

HIZ023>026-201000-
BIG ISLAND OF HAWAII COAST AND LOWER SLOPES-

CITY           SKY/WX    TMP DP  RH WIND       PRES   REMARKS
KAILUA KONA    PTCLDY    79  67  66 E8        29.99S
HILO           MOCLDY    72  69  90 S3        30.06S
HONOKAA*         N/A     68 N/A N/A VRB1        N/A
KAWAIHAE MWT*    N/A     81 N/A N/A NE6         N/A
KAWAIHAE*        N/A     81 N/A N/A NE2       30.00S
SOUTH POINT*     N/A     72 N/A N/A N12         N/A
UPOLU AIRPORT* NOT AVBL
KAMUELA*       NOT AVBL
HAKALAU*         N/A     53  52  96 SW5G10      N/A
KALOKO-HONOKO*   N/A     75  68  78 E3        29.99S
PALI 2*          N/A     66  59  77 S9          N/A
KEALAKOMO*       N/A     77  64  65 N12G17      N/A
KAUPULEHU*       N/A     72  64  78 SE5         N/A
KAPAPALA*        N/A     64  62  92 N3          N/A
LOWER KAHUKU*    N/A    N/A N/A N/A NW2G9       N/A
PUHE CS*         N/A     81  68  65 N2          N/A
PUHO CS*         N/A     77  69  75 E2          N/A
PTA KEAMUKU*     N/A     61  57  88 S9          N/A
WAIKOLOA*        N/A     72  63  73 E10         N/A
$$

HIZ027>028-201000-
BIG ISLAND OF HAWAII INTERIOR AND SUMMMITS-

CITY           SKY/WX    TMP DP  RH WIND       PRES   REMARKS
BRADSHAW FIELD CLOUDY    55  52  91 SE7       30.36S
MK VISITOR CEN   N/A     46  25  42 E7          N/A
MAUNA KEA*       N/A     36  -6  17 SW21        N/A  WCI  24
MAUNA LOA*       N/A    N/A N/A N/A MISG        N/A
MAUNA LOA 1*   NOT AVBL
PTA KIPUKA*      N/A     55  52  88 N3          N/A
PTA RANGE 17*    N/A     68  63  83 W9G16       N/A
PTA WEST*        N/A     64  54  68 SE10G16     N/A
NENE CABIN*      N/A     48  48 100 E5G12       N/A
AHUMOA*          N/A     52  51  95 E2          N/A
PTA PORTABLE*  NOT AVBL
PUU MALI*        N/A     55  52  88 NE2G10      N/A
$$

HIC003-201000-
NORTHWEST ISLANDS-

CITY           SKY/WX    TMP DP  RH WIND       PRES   REMARKS
MIDWAY ISLAND  CLEAR     75  64  69 CALM      29.97S
MIDWAY NOS*      N/A     75 N/A N/A MISG      29.96S
FRENCH FRIGATE NOT AVBL
$$

PHZ110>124-180-201000-
BUOY REPORTS

STATION/POSITION TIME  TEMP    WIND        PRES    WAVE   SWELL
                       AIR SEA DIR/SP/G            HT/PER HT/DIR
                 (UTC) (F)     (DEG/KT/KT) (MB)    (FT/S) (FT/D)
BUOY 51001       0920   81 82   90/ 12/ 14 1018.3
BUOY 51101       0850   81 81   80/ 14/ 17 1018.5F   6/ 8   5/ 90
BUOY 51100       NOT AVBL
BUOY 51002       0920   81 81   70/ 16/ 19 1014.8
BUOY 51003       0850   81 81   70/  8/ 12 1016.1S   6/ 8   7/110
BUOY 51004       0850      80   70/ 14/ 16 1015.2F   6/ 8   5/ 70
WAIMEA BAY#      0902      80                N/A     4/ 7   2/330
MOKAPU POINT#    0904      81                N/A     6/ 8   2/ 80
LANAI#           NOT AVBL
BARBERS PT 2#    NOT AVBL
PAUWELA#         0909      80                N/A     7/ 8   2
HILO#            0927      80                N/A     6/ 8   2/100
KANEOHE BAY#     NOT AVBL
KANEOHE BAY 2#   NOT AVBL
HANALEI#         0852      82                N/A     5/ 8   2/340
KAHULUI HARBOR   0918   76 80   60/ 14/ 19 1016.7
HONOLULU HARBOR  0918   80 82   90/  1/  5 1017.7
PEARL HARBOR#    0900      82                N/A     4/ 7   2/170
KILO NALU        NOT AVBL
HILO HARBOR      0918   73 78  210/  5/  7 1017.3
MOKUOLOE         0836   80 82   80/ 10/ 13 1017.5F
NAWILIWILI       0918   79      50/  9/ 13 1017.6
WHOTS BUOY       NOT AVBL
BUOY 51028       NOT AVBL
$$

......................KEY........................................
  SKY/WX - SKY CONDITIONS/PRESENT WEATHER
  TMP    - TEMPERATURE IN FAHRENHEIT
  DWPT   - DEWPOINT IN FAHRENHEIT
  RH     - RELATIVE HUMIDITY IN PERCENT
  WIND   - DIRECTION AND SPEED /MPH FOR ISLANDS...KTS FOR BUOYS/
  PRES   - MEAN SEA LEVEL PRESSURE IN INCHES OF HG
  VSB    - VISIBILITY IN MILES
  HX     - HEAT INDEX
  WCI    - WIND CHILL INDEX
  VRB    - VARIABLE WIND DIRECTION
  N/A    - NOT AVAILABLE




USA.gov is the U.S. government's official web portal to all federal, state and local government web resources and services.